{"data":{"norad_id":66861,"epoch":"2026-05-24T15:13:18.689376Z","epoch_age_seconds":100667,"freshness":"FRESH","line1":"1 66861U 25281P   26144.63424409  .00020201  00000+0  74127-3 0  9992","line2":"2 66861  43.0004 274.2884 0000514 243.1788 116.9011 15.27593664 27802","mean_motion":15.27593664,"eccentricity":5.14e-5,"inclination_deg":43.0004,"raan_deg":274.2884,"arg_perigee_deg":243.1788,"mean_anomaly_deg":116.9011,"bstar":0.00074127,"rev_number":2780,"period_min":94.26590551766,"perigee_km":482.65551855071,"apogee_km":483.36084427536,"semimajor_km":6861.145181413,"source":"CELESTRAK","updated_at":"2026-05-25T13:38:21.342858Z"}}